Location: ?
(35.3544°N, 139.4507°E)
Time: 15:02:00
(UTC+00:00)

Cosmos 2227 Rocket - Pass Details

Date: 03 August 2024
Orbit: 839 x 843 km, 71.0° (Epoch: 11 September)

Event Time Altitude Azimuth Distance (km) Brightness Sun altitude
Rises 13:31:15 0° 352° (N) 3,398 6.3 -34.3°
Reaches altitude 10° 13:34:13 10° 6° (N) 2,460 5.3 -34.5°
Enters shadow 13:37:29 22° 40° (NE) 1,765 4.0 -34.8°
